STARLINK-36065

Last updated on Fri Dec 19 2025 00:02:08 GMT+0000 (Coordinated Universal Time)

1 66898U 25283W 25352.58336806 -.01544694 00000+0 -10191-1 0 9990 2 66898 53.1551 44.3514 0001143 57.7998 106.7064 15.77943872 3363
UTC large
Height (km)
Speed (km/s)
/
Latitude / Longitude
Inclination (degrees)
Orbital Period (minutes)
Azimuth
Elevation
Range (km)
Doppler Factor

Next 0 passes for location: London (51.5072 / 0.1276)

Sorry there are no passes over London.